Fairbanks Ft. Wainwright, AK

5:16 AM AKDT on April 25, 2017 (GMT -0800)
Ladd Army Air Field

Weather History for PAFB - August, 2013

Change the Weather History Date:

Saturday, August 17, 2013

  Actual Average Record
Temperature  
Mean Temperature 60 °F -  
Max Temperature 73 °F 63 °F 82 °F (2007)
Min Temperature 46 °F 47 °F 42 °F (2001)
Degree Days  
Heating Degree Days 6    
Growing Degree Days 10 (Base 50)    
Moisture  
Dew Point 48 °F    
Average Humidity 66    
Maximum Humidity 90    
Minimum Humidity 37    
Precipitation  
Precipitation 0.02 in - - ()
Sea Level Pressure  
Sea Level Pressure 29.57 in    
Wind  
Wind Speed 3 mph (NW)    
Max Wind Speed 10 mph    
Max Gust Speed -    
Visibility 10 miles    
Events      
Averages and records for this station are not official NWS values.
T = Trace of Precipitation, MM = Missing Value Source: NWS Daily Summary

Daily Weather History Graph

Daily Weather History Graph

Search for Another Location

Airport or City:

Trip Planner

Search our weather history database for the weather conditions in past years. The results will help you decide how hot, cold, wet, or windy it might be!

Date:

Astronomy

Aug. 17, 2013 Rise Set
Actual Time 5:44 AM AKDT 10:01 PM AKDT
Civil Twilight 4:38 AM AKDT 11:06 PM AKDT
Nautical Twilight 2:26 AM AKDT 1:26 AM AKDT
Astronomical Twilight Sun does not set Sun does not set
Moon 8:05 PM AKDT (8/17) 1:05 AM AKDT (8/17)
Length of Visible Light 18h 28m
Length of Day
16h 17m
Waxing Gibbous, 85% of the Moon is Illuminated
Aug 17
Waxing Gibbous
Aug 20
Full
Aug 28
Last Quarter
Sep 5
New
Sep 12
First Quarter

Hourly Weather History & Observations

Time (AKDT) Temp. Dew Point Humidity Pressure Visibility Wind Dir Wind Speed Gust Speed Precip Events Conditions
12:56 AM 52.0 °F 48.9 °F 89% 29.64 in 10.0 mi ENE 4.6 mph - 0.01 in   Clear
1:56 AM 50.0 °F 46.9 °F 89% 29.64 in 10.0 mi Calm Calm - N/A   Clear
2:56 AM 50.0 °F 46.0 °F 86% 29.64 in 10.0 mi Calm Calm - N/A   Clear
3:56 AM 50.0 °F 46.9 °F 89% 29.63 in 10.0 mi Calm Calm - N/A   Clear
4:56 AM 46.9 °F 44.1 °F 90% 29.63 in 10.0 mi Calm Calm - N/A   Clear
5:56 AM 46.9 °F 44.1 °F 90% 29.63 in 10.0 mi NE 3.5 mph - N/A   Clear
6:56 AM 48.0 °F 45.0 °F 89% 29.63 in 10.0 mi Calm Calm - N/A   Clear
7:56 AM 51.1 °F 46.0 °F 83% 29.63 in 10.0 mi Calm Calm - N/A   Clear
8:56 AM 54.0 °F 48.0 °F 80% 29.62 in 10.0 mi Calm Calm - N/A   Clear
9:56 AM 57.9 °F 48.9 °F 72% 29.62 in 10.0 mi Calm Calm - N/A   Partly Cloudy
10:56 AM 62.1 °F 50.0 °F 65% 29.60 in 10.0 mi Calm Calm - N/A   Clear
11:56 AM 64.9 °F 50.0 °F 58% 29.60 in 10.0 mi Calm Calm - N/A   Partly Cloudy
12:56 PM 66.0 °F 51.1 °F 59% 29.59 in 10.0 mi WNW 3.5 mph - N/A   Partly Cloudy
1:56 PM 69.1 °F 51.1 °F 53% 29.57 in 10.0 mi West 4.6 mph - N/A   Mostly Cloudy
2:56 PM 71.1 °F 51.1 °F 49% 29.55 in 10.0 mi WNW 3.5 mph - N/A   Mostly Cloudy
3:56 PM 73.0 °F 46.0 °F 38% 29.54 in 10.0 mi NNW 5.8 mph - N/A   Mostly Cloudy
4:56 PM 73.9 °F 46.0 °F 37% 29.52 in 10.0 mi NNW 10.4 mph - N/A   Mostly Cloudy
5:56 PM 73.9 °F 48.0 °F 40% 29.51 in 10.0 mi NNW 9.2 mph - N/A   Partly Cloudy
6:56 PM 71.1 °F 48.9 °F 45% 29.50 in 10.0 mi NW 9.2 mph - 0.01 in   Clear
7:56 PM 69.1 °F 48.9 °F 49% 29.50 in 10.0 mi NW 5.8 mph - N/A   Mostly Cloudy
8:56 PM 66.9 °F 48.9 °F 52% 29.50 in 10.0 mi NW 5.8 mph - N/A   Overcast
9:56 PM 66.0 °F 48.9 °F 54% 29.50 in 10.0 mi NNW 9.2 mph - N/A   Overcast
10:56 PM 64.0 °F 48.9 °F 58% 29.49 in 10.0 mi NW 8.1 mph - N/A   Overcast
11:56 PM 63.0 °F 50.0 °F 63% 29.49 in 10.0 mi NNW 5.8 mph - N/A   Overcast